Location: Freistadt
(48.5112°N, 14.5013°E)
Time: 09:02:29
(UTC+02:00)

MOZHAYETS 4 - Pass Details

Date: 02 April 2023
Orbit: 657 x 675 km, 98.2° (Epoch: 03 June)

Event Time Altitude Azimuth Distance (km) Brightness Sun altitude
Exits shadow 02:07:15 15° 65° (ENE) 1,766 10.3 -35.1°
Maximum altitude 02:07:43 15° 57° (ENE) 1,755 10.3 -35.0°
Drops below altitude 10° 02:10:18 10° 22° (NNE) 2,090 11.1 -34.9°
Sets 02:13:22 0° 1° (N) 3,011 12.0 -34.7°
